Regional Weather Roundup
Issued by NWS Portland, ME

Home | Current Version | Previous Version | Text Only | Print | Product List | Glossary On
Versions: 1 2 3 4 5 6 7 8 9 10 11 12 13 14 15 16 17 18 19 20 21 22 23 24 25 26 27 28 29 30 31 32 33 34 35 36 37 38 39 40 41 42 43 44 45 46 47 48 49 50
000
ASUS41 KGYX 250810
RWRGYX
WEATHER ROUNDUP FOR MAINE AND NEW HAMPSHIRE
NATIONAL WEATHER SERVICE GRAY ME
400 AM EDT WED MAY 25 2016

MEZ002-005-006-010-012-015-018-020-021-024-026-027-029-250900-
MAINE

CITY           SKY/WX    TMP DP  RH WIND       PRES   REMARKS
PORTLAND       CLOUDY    52  51  97 S5        29.97S FOG
SANFORD        CLOUDY    52  48  87 CALM      29.98S
BAR HARBOR     CLOUDY    51  51 100 E3        29.95F FOG
WISCASSET      CLOUDY    54  53  97 CALM      29.96F FOG
ROCKLAND       FOG       52  52 100 W6        29.95S VSB 1/2
FRYEBURG       CLOUDY    56  55  97 CALM      29.96S
LEWISTONAUBURN CLOUDY    55  52  88 S5        29.95F
AUGUSTA        FOG       53  53 100 S5        29.94F VSB 1/2
WATERVILLE     FOG       55  54  94 SW5       29.92S VSB 1/2
BANGOR         CLOUDY    57  54  89 CALM      29.95S FOG
GREENVILLE       N/A     55  52  89 CALM      29.91S
MILLINOCKET    CLOUDY    56  55  97 VRB3      29.94F
HOULTON        CLOUDY    58  54  86 SW5       29.93S
PRESQUE ISLE   CLOUDY    60  55  83 S9        29.92S
FRENCHVILLE    CLOUDY    58  55  90 S10       29.88F
CARIBOU        CLOUDY    60  55  83 S7        29.90S
$$

NHZ002-005-008-009-011-012-014-250900-
NEW HAMPSHIRE

CITY           SKY/WX    TMP DP  RH WIND       PRES   REMARKS
ROCHESTER      FOG       53  52  96 CALM      29.96S VSB 1/4
NASHUA         CLOUDY    57  55  93 S3        29.98S
MANCHESTER     CLOUDY    57  54  89 CALM      29.96S
CONCORD        FOG       56  54  93 VRB3      29.97S VSB 1/2
PLYMOUTH       MOCLDY    55  54  97 CALM      29.96S FOG
BERLIN         CLOUDY    54  52  93 CALM      29.95S
WHITEFIELD     MOCLDY    51  48  89 CALM      29.96R
JAFFREY        CLEAR     50  49  96 S5        29.98F
KEENE          CLOUDY    54  52  94 CALM      29.99S
LEBANON        CLOUDY    54  52  93 S3        29.96S
MT WASHINGTON  PTCLDY    43  41  93 W32         N/A
$$

VTZ005-007-008-250900-
VERMONT

CITY           SKY/WX    TMP DP  RH WIND       PRES   REMARKS
ST JOHNSBURY     N/A     56  54  93 MISG      29.94S
MONTPELIER     FOG       51  50  96 CALM      29.98S VSB<1/4
BURLINGTON     FAIR      59  51  75 CALM      29.92R
$$

MAZ007-012-024-CTZ003-RIZ002-NYZ038-NYZ072-250900-
SOUTHERN NEW ENGLAND AND NY

CITY           SKY/WX    TMP DP  RH WIND       PRES   REMARKS
BOSTON         CLOUDY    53  52  96 CALM      29.99S
WORCESTER      MOCLDY    52  51  97 W8        30.00R FOG
NANTUCKET      CLOUDY    55  52  89 NW8       29.98R
PROVIDENCE     CLOUDY    56  55  97 CALM      30.00S
HARTFORD       CLOUDY    52  51  97 SE3       29.98F
ALBANY         FOG       55  54  96 S6        29.98S VSB 1
NEW YORK CITY  CLEAR     64  57  78 N5        30.00R
$$

ANZ081-ANZ082-ANZ150-NHZ014-MEZ023>029-250900-
COASTAL MARINE OBSERVATIONS

STATION/POSITION TIME  TEMP    WIND        PRES    WAVE
                       AIR SEA DIR/SP/G            HT/PER
                 (UTC) (F)     (DEG/KT/KT) (MB)    (FT/S)
MOUNT DESERT ROC 0800   47      20/  6/  7 1014.8R
MATINICUS ROCK   0800   48      50/  4/  5 1014.1R
ISLE OF SHOALS   0800   51     300/  5/  5 1014.9S
JEFFREYS LEDGE   0708      51                N/A     3/ 8
CASHES LEDGE BUO 0750   49 49  350/  4/  6 1014.1R   3/ 8
GEORGES BANK BUO 0750   53 50              1014.8F   5/ 8
$$

.............KEY..............
   WCI - WIND CHILL
   TC  - TEMPERATURE IN CELSIUS
   VSB - VISIBILITY IN MILES
   HX  - HEAT INDEX
   FAIR- INDICATES FEW OR NO CLOUDS BELOW 12,000 FT, WITH NO
         SIGNIFICANT WEATHER AND/OR OBSTRUCTIONS TO VISIBILITY.






USA.gov is the U.S. government's official web portal to all federal, state and local government web resources and services.